Marshalltown, IA

8:49 AM CDT on June 26, 2017 (GMT -0500)
Marshalltown Municipal

Weather History for KMIW - June, 2012

Change the Weather History Date:

Monday, June 4, 2012

  Actual Average Record
Temperature  
Mean Temperature 73 °F 67 °F  
Max Temperature 85 °F 77 °F 91 °F (2017)
Min Temperature 60 °F 56 °F 46 °F (1998)
Degree Days  
Heating Degree Days 0 2  
Month to date heating degree days 9 8  
Since 1 June heating degree days 9 8  
Since 1 July heating degree days 5516 6992  
Cooling Degree Days 8 4  
Month to date cooling degree days 9 13  
Year to date cooling degree days 145 63  
Since 1 June cooling degree days 9 13  
Growing Degree Days 22 (Base 50)    
Moisture  
Dew Point 56 °F    
Average Humidity 61    
Maximum Humidity 84    
Minimum Humidity 37    
Precipitation  
Precipitation 0.00 in 0.20 in 0.63 in (2005)
Month to date precipitation T 0.74  
Year to date precipitation 7.19  
Sea Level Pressure  
Sea Level Pressure 29.84 in    
Wind  
Wind Speed 9 mph (East)    
Max Wind Speed 17 mph    
Max Gust Speed 23 mph    
Visibility 10 miles    
Events      
T = Trace of Precipitation, MM = Missing Value Source: NWS Daily Summary

Daily Weather History Graph

Daily Weather History Graph

Search for Another Location

Airport or City:

Trip Planner

Search our weather history database for the weather conditions in past years. The results will help you decide how hot, cold, wet, or windy it might be!

Date:

Astronomy

Jun. 04, 2012 Rise Set
Actual Time 5:36 AM CDT 8:43 PM CDT
Civil Twilight 5:02 AM CDT 9:17 PM CDT
Nautical Twilight 4:19 AM CDT 10:01 PM CDT
Astronomical Twilight 3:27 AM CDT 10:53 PM CDT
Moon 9:13 PM CDT (6/4) 5:44 AM CDT (6/4)
Length of Visible Light 16h 14m
Length of Day
15h 06m
Full, 100% of the Moon is Illuminated
Jun 4
Full
Jun 11
Last Quarter
Jun 19
New
Jun 26
First Quarter
Jul 3
Full

Hourly Weather History & Observations

Time (CDT) Temp. Heat Index Dew Point Humidity Pressure Visibility Wind Dir Wind Speed Gust Speed Precip Events Conditions
12:53 AM 66.9 °F - 55.9 °F 68% 29.76 in 10.0 mi SE 9.2 mph - N/A   Clear
1:53 AM 66.0 °F - 55.9 °F 70% 29.75 in 10.0 mi SE 11.5 mph - N/A   Scattered Clouds
2:53 AM 64.9 °F - 57.0 °F 75% 29.72 in 10.0 mi SE 9.2 mph - N/A   Partly Cloudy
3:53 AM 63.0 °F - 57.9 °F 84% 29.71 in 10.0 mi SE 6.9 mph - N/A   Clear
5:53 AM 60.1 °F - 55.9 °F 86% 29.76 in 10.0 mi ENE 12.7 mph - N/A   Clear
6:53 AM 62.1 °F - 55.9 °F 80% 29.79 in 10.0 mi East 10.4 mph - N/A   Clear
7:49 AM 64.4 °F - 55.4 °F 73% 29.84 in 10.0 mi East 15.0 mph 20.7 mph N/A   Mostly Cloudy
7:53 AM 64.9 °F - 55.9 °F 73% 29.83 in 10.0 mi East 13.8 mph 20.7 mph N/A   Mostly Cloudy
8:20 AM 66.2 °F - 55.4 °F 68% 29.85 in 10.0 mi East 13.8 mph - N/A   Scattered Clouds
8:30 AM 66.2 °F - 55.4 °F 68% 29.86 in 10.0 mi East 15.0 mph - N/A   Mostly Cloudy
8:53 AM 66.9 °F - 57.0 °F 70% 29.84 in 10.0 mi East 15.0 mph - N/A   Mostly Cloudy
9:08 AM 69.8 °F - 57.2 °F 64% 29.86 in 10.0 mi East 10.4 mph - N/A   Scattered Clouds
9:53 AM 71.1 °F - 57.0 °F 61% 29.86 in 10.0 mi ENE 11.5 mph - N/A   Clear
10:53 AM 75.0 °F - 57.0 °F 53% 29.88 in 10.0 mi East 12.7 mph - N/A   Clear
11:53 AM 77.0 °F - 57.9 °F 52% 29.88 in 10.0 mi East 15.0 mph 19.6 mph N/A   Clear
12:53 PM 81.0 °F 81.1 °F 57.9 °F 45% 29.89 in 10.0 mi ENE 15.0 mph 18.4 mph N/A   Clear
1:53 PM 82.0 °F 81.4 °F 55.0 °F 39% 29.88 in 10.0 mi ENE 6.9 mph 16.1 mph N/A   Clear
2:53 PM 81.0 °F 80.8 °F 55.9 °F 42% 29.87 in 10.0 mi East 11.5 mph - N/A   Scattered Clouds
3:53 PM 84.0 °F 83.0 °F 55.9 °F 38% 29.88 in 10.0 mi ENE 11.5 mph - N/A   Clear
4:53 PM 84.0 °F 82.9 °F 55.0 °F 37% 29.88 in 10.0 mi NE 9.2 mph 18.4 mph N/A   Partly Cloudy
5:53 PM 82.9 °F 81.8 °F 53.1 °F 36% 29.87 in 10.0 mi ENE 8.1 mph 17.3 mph N/A   Partly Cloudy
6:53 PM 82.0 °F 81.2 °F 53.1 °F 37% 29.88 in 10.0 mi NE 5.8 mph - N/A   Clear
7:53 PM 79.0 °F - 54.0 °F 42% 29.88 in 10.0 mi NE 5.8 mph - N/A   Clear
8:53 PM 73.9 °F - 54.0 °F 50% 29.88 in 10.0 mi East 4.6 mph - N/A   Clear
9:53 PM 71.1 °F - 54.0 °F 55% 29.90 in 10.0 mi East 3.5 mph - N/A   Clear
10:53 PM 69.1 °F - 54.0 °F 58% 29.90 in 10.0 mi ESE 5.8 mph - N/A   Clear
11:53 PM 68.0 °F - 54.0 °F 61% 29.90 in 10.0 mi SSE 3.5 mph - N/A   Clear